GFSSGP_250_rhum_336.txt.gz
RH
76 90 83 88 96 84 27 54 51 72 71 74 73 60 67 72 70 57 38 23 26 17 27 55 96 76 61 82 82 67 82 78 46 51 68 70 48 40 42 48 47 35 28 35 30 36 38 33 52
100 100 70 67 51 30 55 58 76 99 99 87 90 78 69 26 17 30 26 28 36 35 46 48 61 58 41 71 60 46 42 42 60 75 76 50 42 46 46 43 46 52 56 44 51 39 48 36 35
83 72 36 35 36 81 91 86 78 97 98 65 72 56 36 20 44 31 26 28 41 67 54 31 27 37 62 49 50 50 55 65 70 72 63 49 37 36 47 34 37 59 97 49 68 61 61 72 61
33 16 20 56 65 80 92 100 100 99 86 79 54 51 19 42 42 33 35 37 50 41 39 61 52 84 60 75 83 87 74 65 66 60 49 47 38 45 36 31 40 58 60 66 78 49 56 69 56
16 23 39 78 91 71 100 100 100 100 100 89 51 47 25 44 39 54 42 36 47 89 94 93 83 90 99 91 83 88 100 78 70 59 59 51 41 38 30 30 55 71 45 74 73 54 60 46 58
33 41 54 35 38 63 76 100 100 99 76 51 42 34 30 44 54 93 56 38 66 96 96 100 97 100 86 92 86 96 84 98 76 76 61 51 37 41 32 33 65 56 53 61 30 43 48 63 61
73 78 83 80 42 25 34 83 79 56 49 22 61 28 36 40 56 94 98 46 68 76 95 100 100 100 62 57 78 98 99 95 86 64 49 61 41 38 46 48 68 99 98 72 35 38 51 62 52
92 100 100 97 100 100 66 10 21 60 49 37 64 28 36 38 54 75 84 61 47 65 100 100 100 93 71 68 91 100 98 81 91 69 45 57 51 49 34 58 97 86 59 100 59 45 81 85 46
100 100 100 100 98 99 95 22 13 69 57 43 51 28 38 46 68 93 91 76 51 85 100 100 96 88 62 57 95 98 80 73 84 70 65 82 43 35 52 100 100 55 34 57 47 70 68 47 57
12 14 13 30 58 86 70 51 8 16 40 28 42 31 43 50 80 100 84 95 95 100 93 95 84 67 70 56 74 86 84 75 82 98 44 37 48 37 55 96 100 93 88 33 57 85 61 72 91
10 10 9 9 16 60 68 65 8 8 24 26 41 47 44 50 87 92 92 82 99 100 100 100 98 99 86 60 59 65 83 60 61 57 45 34 44 41 68 98 83 82 100 93 98 100 84 69 66
9 8 8 8 10 23 41 46 8 7 10 15 22 58 26 47 53 95 92 95 85 79 92 99 95 64 61 62 56 55 76 58 48 61 62 62 49 49 58 95 100 100 100 93 81 53 56 58 61
8 8 8 8 9 13 16 9 8 7 8 10 13 52 37 36 52 87 99 94 73 68 68 65 60 64 58 57 76 57 73 47 46 68 95 93 80 49 45 73 64 70 80 86 70 54 62 73 79
8 7 8 8 10 15 10 8 7 8 7 8 11 29 44 26 48 89 100 100 80 61 56 48 56 81 56 50 63 72 68 52 49 78 92 90 70 43 39 49 57 63 56 74 86 79 61 95 100
8 8 8 7 8 11 9 8 7 8 8 8 9 15 46 29 41 57 83 100 100 70 62 53 65 68 92 92 67 69 73 71 59 54 80 83 59 44 49 39 62 52 64 79 65 94 100 99 58
10 8 8 8 8 11 10 8 8 7 7 8 9 10 28 40 25 49 62 78 100 100 93 82 84 76 69 81 74 74 56 64 64 62 72 82 72 48 52 60 47 36 65 66 65 95 80 44 34
10 9 9 9 8 10 11 8 7 8 7 8 9 8 12 28 37 28 45 52 68 65 74 73 74 67 67 60 60 91 73 49 51 55 50 53 60 42 53 60 34 46 62 67 77 96 61 28 53
11 10 8 9 7 8 11 9 7 7 8 8 9 10 8 8 22 36 22 27 40 54 63 65 58 66 68 70 68 89 98 56 44 39 44 44 47 56 34 34 37 35 41 76 92 62 63 87 46
13 11 9 9 8 9 10 10 8 7 7 8 8 10 11 8 8 18 40 28 19 31 39 50 52 46 54 78 72 62 66 75 69 56 44 36 36 53 71 27 23 27 47 54 53 87 84 78 61
17 14 11 8 8 10 9 10 8 7 7 18 30 9 29 51 29 12 10 27 46 34 24 26 30 34 39 50 75 74 60 57 57 54 50 45 56 51 49 74 57 33 36 34 27 50 39 41 66
17 18 15 11 8 9 11 10 10 8 7 8 20 16 14 16 22 22 21 23 19 16 29 40 29 26 30 38 52 53 69 72 55 47 48 62 64 56 50 76 72 49 49 37 45 63 55 38 73
18 19 19 15 10 9 11 11 9 13 35 7 27 83 55 62 67 67 57 37 43 52 82 33 22 48 39 32 35 55 44 46 48 44 43 66 68 62 54 38 38 40 34 36 51 61 56 56 74
20 19 21 19 14 11 10 11 14 9 68 10 40 97 99 99 56 62 99 86 95 86 100 95 30 19 18 31 36 32 34 54 53 51 45 44 48 49 56 49 41 38 48 29 34 54 44 48 48
20 20 21 20 17 13 11 10 12 14 21 97 33 76 98 94 98 82 58 86 98 100 100 100 73 48 33 26 13 23 31 28 29 38 43 41 37 38 38 46 42 33 59 65 70 51 43 38 43
22 21 22 21 22 16 12 10 12 15 15 27 73 89 83 68 80 96 100 75 87 88 85 85 97 23 69 48 52 75 44 16 24 30 27 26 32 35 33 40 45 39 43 49 76 96 100 100 100
24 23 23 22 22 18 15 12 11 14 16 14 14 74 56 64 90 74 59 64 74 65 62 74 99 95 93 96 99 100 100 100 66 30 15 21 26 24 22 26 33 45 44 45 61 73 98 90 98
24 25 25 25 24 23 17 14 12 12 15 15 13 12 31 35 68 72 34 42 35 40 38 64 100 100 83 59 74 97 99 100 100 100 100 83 28 16 10 35 44 59 79 96 86 75 76 88 95
22 25 26 26 27 30 25 19 16 12 14 14 14 15 14 11 15 28 40 38 13 9 21 48 96 100 96 80 92 58 47 72 97 97 100 100 100 100 100 58 40 54 93 100 98 72 66 69 72
24 26 26 26 30 30 32 29 21 15 13 13 13 16 14 13 12 11 9 8 6 6 18 34 64 94 100 100 90 55 67 66 50 66 98 80 87 83 93 100 94 74 39 71 100 74 70 38 45
23 26 24 29 28 29 34 36 35 24 15 12 12 12 16 14 13 12 11 8 7 6 9 33 50 64 62 71 81 86 65 67 54 74 87 85 79 80 98 95 84 90 79 55 95 94 68 62 44

GFSSGP_250_rhum_339.txt.gz
RH
75 85 90 72 75 98 64 37 58 57 64 82 90 67 59 76 67 56 50 43 36 32 15 63 66 100 100 100 100 90 92 98 72 90 65 46 41 53 47 45 43 36 32 41 58 52 39 49 72
91 100 98 39 40 33 70 70 65 71 90 90 64 71 64 31 16 19 29 30 30 30 22 30 100 98 60 57 78 66 56 48 91 100 55 45 40 40 44 71 52 38 49 62 56 52 58 50 47
49 56 26 43 54 61 77 85 81 87 95 69 52 64 44 19 35 30 33 32 33 41 26 36 59 83 37 65 71 59 50 90 100 95 57 35 47 35 40 87 66 65 43 61 63 42 48 67 79
33 24 44 57 45 46 88 88 100 86 72 72 56 49 19 38 39 36 30 43 49 60 45 43 59 75 50 63 83 64 80 94 97 53 37 37 38 50 54 56 67 49 20 36 54 57 48 43 44
50 42 34 38 44 64 98 100 100 98 66 56 35 28 34 38 58 34 34 44 59 51 41 35 69 64 100 82 100 100 100 91 50 43 33 38 29 45 65 50 42 33 31 48 50 72 39 42 40
78 74 66 57 42 52 77 92 76 74 66 34 52 25 40 67 72 32 36 61 65 65 57 82 88 96 100 99 100 100 90 80 74 73 42 38 31 44 61 53 43 44 26 45 76 71 62 52 51
100 94 91 63 97 72 30 26 32 47 42 47 45 33 47 83 73 34 50 90 92 76 98 100 99 100 88 100 100 97 74 84 78 51 49 48 66 70 73 77 54 38 24 47 48 67 68 67 73
19 26 32 60 90 100 87 10 20 50 31 63 35 42 52 70 67 39 71 87 90 94 100 100 100 95 100 100 100 99 80 72 48 57 49 48 62 67 100 100 39 51 34 59 68 40 60 78 83
10 10 10 12 28 81 75 36 17 65 53 55 36 47 54 73 60 46 69 78 87 95 100 94 96 88 95 95 100 94 97 79 48 58 90 64 56 75 100 58 39 35 38 75 64 68 50 70 64
10 9 9 9 14 51 50 32 9 47 33 51 34 47 66 70 54 57 45 68 86 83 100 100 87 77 74 100 100 93 85 79 68 80 82 45 78 100 96 100 55 51 56 90 76 60 66 71 56
7 8 7 9 10 28 55 16 8 27 25 45 40 37 58 72 54 62 51 81 91 100 100 100 76 55 54 72 92 98 88 98 57 46 57 56 49 78 90 98 94 100 92 100 83 69 65 72 99
7 7 6 8 12 11 11 10 8 12 16 24 53 25 50 76 69 68 82 75 89 98 90 75 62 84 59 52 70 90 89 96 75 58 61 57 54 79 100 100 100 91 72 46 43 61 71 100 100
7 7 7 7 9 11 10 9 8 8 12 13 54 30 44 62 72 66 69 95 100 100 100 100 96 70 56 48 51 89 73 72 74 67 73 81 51 58 87 81 54 65 77 73 56 63 95 68 74
8 8 7 8 8 9 8 9 8 7 8 12 30 45 35 52 62 71 58 62 74 95 96 85 59 50 49 48 49 72 76 57 57 93 90 93 50 44 49 50 52 54 57 67 90 82 93 65 64
8 8 7 8 8 8 8 8 8 7 7 8 14 41 28 36 46 54 56 68 70 76 65 58 76 55 45 43 62 57 66 48 54 68 71 43 37 41 36 42 47 55 72 56 81 100 50 42 37
8 8 8 8 8 9 7 7 7 8 7 7 8 18 37 25 37 53 70 51 67 59 56 55 76 84 76 72 68 65 72 53 48 63 63 69 54 35 45 42 49 38 65 64 82 100 80 65 41
10 10 9 9 8 9 7 6 7 7 8 7 7 10 37 45 36 52 59 86 95 81 59 56 62 77 74 58 64 61 70 70 62 51 61 73 68 35 40 45 39 33 57 61 70 93 94 63 64
10 11 10 9 8 8 8 6 6 7 8 8 7 7 12 33 45 41 58 73 79 85 74 54 54 50 50 55 46 52 50 64 67 61 53 50 57 37 33 41 48 46 39 56 69 86 95 96 89
11 12 12 10 10 8 8 7 6 7 13 8 10 8 8 12 25 42 32 27 38 61 68 60 57 55 54 39 44 41 52 56 43 44 51 36 42 52 52 33 28 65 79 99 78 48 89 100 100
11 12 14 12 11 10 9 7 7 6 21 36 10 17 10 10 12 36 46 40 31 27 31 46 48 49 50 44 44 48 55 70 51 39 39 36 42 36 38 59 38 46 88 61 38 68 54 54 36
12 13 15 13 12 11 11 10 9 9 8 20 11 15 20 19 22 19 15 23 40 45 40 33 28 34 44 48 54 85 62 63 65 63 56 51 49 62 62 64 76 98 86 40 69 57 57 50 57
13 13 16 16 13 11 10 10 12 15 8 18 32 30 49 69 64 39 18 19 39 72 70 27 46 42 31 29 31 44 87 99 100 99 71 72 76 68 58 48 40 46 40 33 31 27 35 60 45
17 14 16 19 17 14 11 11 10 31 67 26 42 58 53 75 74 52 59 81 77 80 98 89 38 21 23 37 34 28 36 58 63 62 63 64 46 64 68 55 46 48 41 33 33 39 31 32 45
21 18 18 20 21 19 15 12 12 10 20 67 77 51 60 61 68 64 58 60 74 66 99 90 100 89 41 31 24 23 29 29 30 34 43 48 46 50 55 57 52 48 54 46 45 56 60 80 75
24 23 22 20 23 22 23 17 13 12 11 12 14 22 39 64 75 98 87 71 62 66 99 87 99 100 94 100 78 57 70 68 26 24 26 26 27 32 37 38 36 39 48 52 40 39 35 52 85
23 25 26 26 23 24 27 24 16 14 13 13 12 14 19 26 24 45 82 78 58 56 75 90 96 100 100 100 100 92 100 88 100 100 94 25 19 22 21 22 21 20 25 32 38 81 89 73 54
21 26 26 27 27 24 26 29 23 17 14 15 14 13 13 13 13 21 30 58 66 51 41 41 76 100 74 85 86 87 55 78 93 90 100 100 100 95 39 24 14 23 49 56 88 100 89 56 47
19 24 26 28 30 31 24 25 27 23 22 19 17 15 13 12 13 12 12 14 15 24 48 27 52 96 74 42 50 60 38 56 60 56 80 97 92 92 100 100 100 97 80 80 86 95 100 77 62
19 23 26 28 32 35 32 27 28 28 26 28 25 20 18 17 15 14 13 12 11 13 17 24 19 100 96 60 58 67 45 41 36 34 36 74 84 75 78 87 78 93 100 100 100 97 81 80 69
22 19 21 26 34 40 38 36 31 28 27 26 26 25 22 17 16 16 15 14 12 9 8 7 8 38 57 85 87 74 62 73 52 36 37 33 40 59 49 55 79 89 81 88 99 100 93 75 64

GFSSGP_250_rhum_342.txt.gz
RH
84 69 82 100 94 69 86 70 49 50 52 54 60 86 67 62 66 60 44 40 44 47 42 39 83 91 86 93 100 100 100 100 100 88 51 58 92 52 36 33 57 39 44 43 43 45 48 36 43
62 99 100 88 71 46 64 68 58 62 67 71 68 57 66 60 36 17 20 31 38 31 31 46 90 100 100 100 80 50 63 62 100 70 58 71 75 75 57 46 58 57 54 43 52 66 61 68 67
28 47 44 52 57 60 68 78 98 54 90 68 48 54 54 40 17 26 25 24 27 27 28 22 65 100 57 45 64 50 43 96 100 71 79 70 60 70 64 36 45 37 48 49 38 36 40 62 88
35 34 47 41 63 74 100 83 81 100 70 70 41 59 22 21 34 29 26 28 30 35 27 24 92 82 28 46 87 59 77 100 100 44 75 47 62 59 46 45 56 56 72 52 43 49 47 27 45
79 56 48 46 40 39 57 82 100 99 62 36 48 22 34 40 47 36 36 35 40 38 30 36 53 65 43 71 78 61 98 100 69 35 53 54 56 50 45 35 38 55 86 61 50 86 64 63 54
93 94 72 64 76 71 37 50 62 42 54 37 25 35 44 67 38 34 42 53 56 46 38 70 86 100 100 100 100 100 95 65 53 55 29 51 67 68 57 40 37 55 64 40 57 81 94 70 73
14 54 49 36 63 84 46 11 20 50 30 31 28 47 60 84 34 31 48 49 48 62 96 80 100 100 95 100 100 100 92 97 66 31 31 69 68 55 50 36 45 44 26 33 66 67 100 79 60
9 10 11 13 36 80 56 15 23 32 43 25 38 50 61 84 39 55 78 78 78 92 79 100 100 100 100 100 100 100 94 57 36 42 46 70 55 88 73 62 50 47 35 41 60 70 78 91 99
8 9 10 12 44 77 45 13 31 45 42 30 42 66 74 84 39 58 87 87 75 97 100 100 100 100 100 100 98 78 56 45 37 42 68 88 99 100 40 51 50 56 53 52 68 72 76 66 56
7 9 10 15 54 75 33 10 28 32 42 35 49 71 86 81 42 65 75 86 86 99 100 100 100 88 99 100 85 94 55 54 80 85 65 76 100 93 78 50 49 66 62 49 52 91 100 97 64
7 9 12 14 27 27 12 8 17 24 40 35 57 62 83 78 43 59 66 86 90 90 100 99 92 84 95 100 76 80 76 66 96 70 44 98 100 94 100 98 99 77 100 62 47 81 96 84 83
8 9 11 9 8 8 8 8 9 14 44 31 53 64 67 72 42 58 47 78 83 100 92 93 62 59 71 86 87 69 72 38 49 73 47 64 92 91 98 97 92 85 41 35 41 96 96 100 84
7 8 11 9 8 8 8 8 8 11 34 33 39 63 68 77 53 38 48 56 91 95 78 69 56 57 59 62 78 61 77 53 55 64 50 42 58 93 100 78 42 57 59 35 37 48 94 98 89
8 8 9 10 8 8 8 7 8 8 14 49 26 43 65 91 96 61 57 54 53 64 65 63 78 61 61 50 60 67 58 59 49 80 67 76 48 57 53 42 44 49 51 62 74 41 48 41 53
8 8 7 8 7 7 8 7 7 8 9 27 34 27 39 74 96 87 74 66 78 96 100 93 66 54 52 53 55 69 61 51 55 94 75 100 65 41 29 37 41 44 50 49 67 58 37 38 37
9 8 8 7 8 7 7 7 7 7 8 10 34 28 36 45 73 88 70 79 80 83 73 62 72 62 52 41 63 56 76 50 48 56 64 39 36 34 59 30 34 37 45 51 89 99 100 95 92
10 10 8 8 8 8 6 7 7 7 7 7 10 33 29 46 54 66 76 72 71 69 59 67 92 92 82 78 66 68 56 46 42 69 61 65 49 38 100 85 29 32 26 40 45 51 98 98 100
12 9 9 8 8 8 7 6 7 7 7 7 7 10 33 31 43 55 76 77 80 72 61 63 76 88 85 80 85 78 70 64 50 65 68 72 59 35 37 34 30 85 65 83 98 74 100 100 82
14 9 10 10 9 8 9 7 8 20 7 8 8 8 9 29 39 42 44 46 66 89 94 82 66 58 64 75 68 72 76 74 70 74 60 61 68 63 33 24 34 92 94 100 83 67 74 70 64
15 11 8 11 10 9 9 10 8 24 21 8 11 8 7 8 14 36 38 37 42 54 61 62 58 60 53 49 55 61 96 100 84 69 70 69 61 59 65 61 52 80 78 92 97 100 89 92 73
17 14 9 11 13 11 10 9 13 8 17 9 29 26 20 16 14 10 12 24 32 30 28 30 38 41 42 44 42 41 44 58 76 66 49 43 41 60 42 45 66 88 98 100 100 72 60 46 48
17 16 12 10 13 13 12 11 10 14 14 40 31 51 83 97 74 52 21 20 48 65 61 29 31 36 32 34 44 46 51 47 52 68 58 52 51 51 49 57 48 64 93 83 38 31 32 40 28
12 18 16 13 11 15 13 13 12 10 40 28 41 54 55 62 83 70 40 38 62 88 100 98 64 21 21 30 26 26 30 42 49 49 61 46 45 48 62 68 56 45 42 31 23 62 53 82 96
12 14 20 18 13 13 16 14 14 12 11 10 21 37 47 56 66 68 67 73 75 83 77 100 74 88 59 26 20 25 29 30 29 38 52 66 64 46 36 46 48 46 40 41 83 75 83 90 94
15 12 16 20 18 15 15 14 15 13 13 12 11 11 11 14 31 62 76 81 85 82 74 100 100 100 100 100 83 47 31 40 69 38 24 28 29 31 39 42 37 34 32 35 44 58 48 75 83
20 16 15 18 22 21 19 17 16 15 14 13 12 12 12 12 11 12 16 28 51 64 64 72 100 100 84 96 100 100 99 100 90 87 95 89 62 16 18 20 21 22 21 22 23 26 24 30 37
23 27 21 17 21 25 25 21 24 18 17 15 14 13 14 14 12 12 12 11 11 14 31 48 59 85 75 74 97 99 87 62 54 78 79 88 95 100 100 94 34 12 11 15 18 23 32 60 56
20 27 26 24 18 22 29 28 26 23 20 18 18 17 15 15 15 15 14 13 12 12 11 11 21 22 37 44 57 69 61 55 40 37 51 57 65 76 71 91 92 98 97 93 91 85 77 74 69
20 25 26 26 26 21 28 28 28 28 27 25 18 18 21 18 14 14 15 14 15 13 12 10 10 12 33 56 52 49 46 58 48 37 34 43 49 61 73 63 73 77 78 76 84 90 97 94 82
26 26 24 26 25 25 28 27 28 32 31 29 31 23 22 25 27 21 18 16 15 15 14 12 11 10 10 26 72 73 62 71 65 48 43 39 32 37 42 51 56 64 51 49 51 66 83 88 84

GFSSGP_250_rhum_345.txt.gz
RH
98 72 64 70 99 100 82 54 57 60 42 39 42 50 43 40 49 80 42 28 20 16 16 16 24 38 57 53 50 61 83 100 99 84 79 68 49 47 48 43 35 35 44 37 42 56 69 87 64
32 71 93 99 100 66 40 61 63 60 66 60 53 45 52 56 50 38 32 35 34 36 30 21 56 66 78 87 100 100 100 96 84 74 95 71 56 48 50 40 39 48 50 38 39 37 73 100 100
35 52 63 45 46 57 72 72 70 57 78 90 63 46 40 50 48 32 16 14 35 34 30 24 66 100 100 96 83 46 84 100 79 70 76 56 80 41 37 37 36 49 38 39 31 28 54 60 84
52 54 59 40 64 56 100 100 69 78 90 68 55 39 43 29 22 26 26 25 21 26 22 23 80 100 72 37 74 36 78 100 79 74 75 48 71 45 60 57 83 37 72 100 40 45 45 54 55
80 74 57 56 41 43 48 74 100 100 83 59 35 25 26 33 33 24 22 21 23 25 22 28 90 92 33 38 55 42 71 100 49 65 52 58 33 43 47 59 44 55 42 78 87 70 58 59 89
47 39 64 73 85 74 31 30 84 44 51 32 25 33 50 38 28 44 33 28 34 29 22 39 78 63 36 53 41 81 93 98 51 67 61 52 59 49 52 45 32 36 42 84 93 60 47 55 88
27 11 14 17 90 84 38 13 35 52 31 31 33 55 61 32 41 55 55 41 49 34 30 58 80 79 91 100 97 100 100 45 55 38 51 64 48 56 52 38 35 77 58 70 79 83 93 75 92
91 18 13 16 43 69 28 15 45 31 34 30 41 71 45 43 38 31 41 44 76 88 84 100 100 100 84 87 100 81 89 73 36 35 68 60 62 68 71 48 37 43 65 82 74 61 58 60 65
74 23 8 21 61 50 15 18 41 37 26 39 50 65 38 49 63 49 68 100 100 100 100 100 100 96 57 98 100 100 84 46 48 46 49 65 100 41 39 49 48 45 53 98 100 94 70 65 80
8 9 10 25 56 45 9 22 39 32 29 51 63 66 33 62 92 73 85 100 97 99 100 100 100 96 100 100 76 54 53 45 45 64 86 100 84 49 40 54 56 46 44 57 92 92 91 100 95
8 9 9 8 15 17 7 14 28 30 34 53 82 67 39 64 91 70 88 99 100 100 100 100 100 100 100 88 89 52 59 70 64 53 93 100 79 87 98 100 100 86 62 44 97 74 88 91 82
6 7 8 8 8 8 7 9 21 29 32 47 80 62 53 57 68 65 54 93 100 100 97 91 89 100 95 61 71 53 57 74 61 48 97 100 63 99 100 100 90 58 30 30 72 85 70 70 51
7 7 7 6 7 7 6 8 14 34 27 43 70 65 50 46 60 64 57 56 72 93 73 86 59 72 99 77 65 42 33 46 60 36 63 86 89 100 91 68 45 45 37 44 46 62 46 47 49
7 7 7 6 7 7 7 7 11 29 29 39 60 58 60 44 60 63 83 71 86 95 82 42 49 56 56 78 70 62 43 50 60 52 38 41 55 88 72 42 40 37 44 41 54 47 42 27 29
9 66 8 6 6 7 8 6 8 13 44 26 56 61 78 61 56 76 90 90 100 71 57 48 77 54 55 53 74 63 74 62 52 83 71 100 76 56 52 40 35 35 31 40 90 96 98 74 55
100 54 8 7 6 7 7 7 6 8 22 27 29 61 66 90 81 71 60 57 55 54 67 96 71 52 54 56 61 66 65 55 60 80 72 83 100 98 52 35 33 38 37 43 98 99 100 100 80
10 8 8 8 7 6 7 7 7 6 9 22 24 30 57 74 81 84 80 76 88 97 99 84 44 48 48 50 52 70 68 72 57 70 88 90 64 41 100 87 45 41 34 36 48 79 100 100 100
12 9 9 9 8 8 7 14 9 7 6 9 24 27 25 46 66 70 68 71 85 81 67 48 48 61 67 74 86 88 92 89 67 55 76 75 64 53 67 100 90 48 94 61 100 100 95 96 100
12 13 8 10 9 9 11 8 20 12 8 7 8 22 32 24 33 52 75 76 76 70 63 63 64 66 67 61 74 86 76 81 69 42 52 56 60 46 23 34 39 53 85 79 100 97 84 96 99
13 13 11 10 10 9 10 18 9 11 9 11 8 8 15 33 33 26 28 40 54 67 85 92 84 72 69 52 59 62 64 53 55 50 45 48 45 54 37 29 28 25 50 55 63 65 71 68 52
12 14 14 12 12 10 10 11 19 16 13 17 18 18 19 13 14 28 32 28 25 25 29 31 39 48 51 52 54 50 48 59 60 46 40 45 54 50 57 92 94 50 40 45 59 64 81 34 28
12 16 15 16 12 10 11 10 11 35 42 48 49 52 79 76 57 50 16 16 29 26 30 22 26 29 34 41 39 40 40 42 54 70 60 42 40 39 33 36 55 55 68 56 56 87 67 34 46
14 16 16 15 13 10 11 13 12 10 21 38 55 64 69 64 70 71 46 45 82 94 86 96 65 43 26 27 27 34 37 41 42 44 56 64 56 54 46 37 39 35 38 38 54 52 39 51 63
16 16 17 17 15 13 10 12 12 12 11 10 13 28 36 41 48 62 78 73 73 83 75 86 99 69 70 41 17 20 27 27 28 30 38 42 52 50 44 43 40 44 51 44 38 28 29 68 82
18 15 17 17 16 15 13 14 12 12 12 12 11 10 9 9 11 29 58 86 88 89 91 93 100 100 100 89 75 30 17 17 20 23 24 25 28 31 41 40 42 41 45 53 44 38 35 60 78
18 18 17 16 18 18 17 17 14 12 13 12 12 12 11 11 10 10 10 10 22 29 49 59 73 95 100 97 100 100 97 46 66 87 56 74 44 25 24 20 19 22 29 27 23 28 32 37 35
18 20 21 17 23 20 20 18 19 15 16 16 12 13 13 12 11 11 11 11 11 9 8 9 25 50 95 100 100 100 100 97 98 95 64 73 81 71 63 95 45 40 29 15 14 15 13 14 16
23 19 24 20 20 24 20 20 18 20 16 16 18 15 14 13 13 12 11 12 13 13 12 11 9 9 13 24 35 72 84 89 88 68 87 53 57 70 73 73 86 89 90 88 81 52 43 50 53
26 23 25 25 21 23 21 21 22 21 20 18 14 17 17 16 18 16 16 13 12 13 14 13 12 12 11 9 9 27 42 62 74 59 63 67 59 44 53 53 64 68 74 77 78 83 100 90 81
25 28 30 31 28 20 20 20 23 23 25 24 22 15 16 16 12 15 18 18 16 14 13 14 14 13 12 12 12 10 8 16 49 55 62 79 63 49 36 37 41 46 67 66 79 66 56 54 43